Simultaneous Nadir Overpasses (SNOs) Predictions

Prediction of SNOs between AQUA and NOAA-19 Satellite Orbit:

Table of predicted SNOs for the next 14.0 days since TLE Epoch: 7/6/2024
Index Date (AQUA) Time (AQUA) Lat,Lon (AQUA) SZA (AQUA ) Date (NOAA-19) Time (NOAA-19) Lat,Lon (NOAA-19) SZA (NOAA-19 ) Distance(km) Time Diff (sec)
1 07/06/2024 08:00:43 -75.69,-122.04 126.99 07/06/2024 07:59:45 -75.69,-122.03 126.99 0.59 58
2 07/06/2024 08:50:07 75.77, 45.40 53.10 07/06/2024 08:50:45 75.77, 45.49 53.10 2.68 38
3 07/08/2024 11:50:35 75.68, 0.58 53.24 07/08/2024 11:49:43 75.68, 0.50 53.25 2.30 52
4 07/08/2024 12:39:58 -75.77, 167.97 126.67 07/08/2024 12:40:37 -75.76, 168.03 126.68 2.15 39
5 07/10/2024 15:40:25 -75.67, 123.20 126.51 07/10/2024 15:39:34 -75.69, 123.11 126.48 3.17 51
6 07/10/2024 16:29:49 75.75, -69.40 53.59 07/10/2024 16:30:35 75.75, -69.42 53.59 0.67 46
7 07/12/2024 19:30:16 75.69,-114.30 53.83 07/12/2024 19:29:32 75.69,-114.33 53.82 1.12 44
8 07/12/2024 20:19:39 -75.77, 53.12 126.09 07/12/2024 20:20:26 -75.74, 53.12 126.12 3.99 47
9 07/14/2024 23:20:05 -75.70, 8.26 125.84 07/14/2024 23:19:22 -75.70, 8.31 125.84 1.50 43
10 07/15/2024 00:09:28 75.75, 175.78 54.22 07/15/2024 00:10:24 75.74, 175.69 54.21 2.61 56
11 07/17/2024 03:09:54 75.72, 130.79 54.54 07/17/2024 03:09:20 75.70, 130.88 54.53 3.04 34
12 07/17/2024 03:59:16 -75.74, -61.62 125.43 07/17/2024 04:00:14 -75.74, -61.73 125.44 3.07 58
13 07/19/2024 06:59:41 -75.70,-106.57 125.09 07/19/2024 06:59:10 -75.68,-106.59 125.11 2.40 31



Historial Predications of SNOs between AQUA and NOAA-19
